CDT,Max TemperatureF,Mean TemperatureF,Min TemperatureF,Max Dew PointF,MeanDew PointF,Min DewpointF,Max Humidity, Mean Humidity, Min Humidity, Max Sea Level PressureIn, Mean Sea Level PressureIn, Min Sea Level PressureIn, Max VisibilityMiles, Mean VisibilityMiles, Min VisibilityMiles, Max Wind SpeedMPH, Mean Wind SpeedMPH, Max Gust SpeedMPH,PrecipitationIn, CloudCover, Events, WindDirDegrees
2012-9-1,90,84,77,84,79,76,100,92,69,30.11,30.04,30.00,10,9,2,20,5,26,0.59,2,Rain,166
2012-9-2,95,86,77,83,78,75,100,82,53,30.07,30.02,29.96,10,10,7,13,4,17,0.00,1,,181
2012-9-3,95,85,75,83,77,75,100,83,53,30.03,29.98,29.92,10,9,1,13,5,16,0.00,1,,173
2012-9-4,95,86,76,83,76,71,100,80,46,29.98,29.94,29.88,10,10,7,12,5,17,0.00,1,,175
2012-9-5,96,86,75,83,77,72,100,81,45,29.93,29.89,29.85,10,9,3,14,4,18,0.00,1,,187
2012-9-6,98,86,73,83,75,71,100,80,41,29.96,29.91,29.87,10,9,0,12,2,17,0.00,1,Fog,200
2012-9-7,97,85,73,83,75,72,100,79,45,29.93,29.88,29.82,10,7,0,13,3,16,0.00,2,Fog,206
2012-9-8,93,84,74,82,74,68,100,77,52,30.01,29.91,29.83,10,8,0,16,5,23,0.00,3,Fog,339
2012-9-9,90,78,65,72,63,54,100,68,31,30.11,30.04,30.00,10,10,7,15,5,20,0.00,0,,50
2012-9-10,91,76,62,68,62,54,100,69,31,30.11,30.05,30.01,10,10,10,13,4,,0.00,0,,41
2012-9-11,91,77,63,77,69,63,100,77,48,30.07,30.03,29.99,10,10,10,16,5,23,0.00,2,,71
2012-9-12,89,81,73,81,77,73,100,91,66,30.07,30.01,29.96,10,9,2,12,4,18,0.30,3,Rain,116
2012-9-13,87,80,74,79,75,72,100,86,60,30.12,30.05,29.99,10,10,7,14,5,18,0.00,2,,103
2012-9-14,89,81,73,78,75,70,100,92,52,30.13,30.10,30.06,10,9,2,10,5,,0.40,3,Rain,22
2012-9-15,91,81,71,76,73,70,100,88,49,30.14,30.09,30.03,10,8,4,13,6,,0.03,4,Rain,3
2012-9-16,90,80,69,78,72,70,100,88,53,30.06,29.98,29.92,10,8,3,15,3,16,0.11,3,Rain,25
2012-9-17,86,78,69,74,71,67,100,86,52,29.94,29.85,29.78,10,9,5,10,5,9,0.04,5,Rain,341
2012-9-18,89,78,66,74,68,66,100,78,46,30.01,29.95,29.87,10,8,2,13,3,20,0.00,1,,343
2012-9-19,87,76,64,74,69,63,100,81,47,30.10,30.05,30.01,10,10,7,12,5,,0.00,2,,51
2012-9-20,90,76,61,68,62,54,100,73,29,30.08,30.03,29.98,10,10,7,9,3,,0.00,0,,83
2012-9-21,91,74,57,74,65,57,100,78,42,30.02,29.98,29.93,10,10,4,8,3,,0.00,0,,80
2012-9-22,94,80,67,78,71,65,100,80,38,30.10,30.03,29.98,10,7,0,10,2,,0.00,1,Fog,88
2012-9-23,95,82,68,79,71,66,100,81,39,30.16,30.12,30.08,10,7,0,13,3,17,0.00,1,Fog,94
2012-9-24,92,79,66,79,70,66,100,81,46,30.15,30.10,30.03,10,7,0,12,2,18,0.00,1,Fog,134
2012-9-25,92,81,70,77,72,67,100,79,44,30.06,30.02,29.97,10,9,3,15,6,20,0.00,2,,134
2012-9-26,92,80,69,78,73,70,100,81,50,30.03,29.99,29.96,10,9,4,15,6,21,0.00,2,,118
2012-9-27,93,81,69,79,74,70,100,83,52,30.07,30.02,29.97,10,9,5,16,6,20,0.00,1,,79
2012-9-28,91,82,73,80,75,71,100,87,55,30.03,29.97,29.92,10,8,1,14,3,20,0.00,1,,109
2012-9-29,85,79,73,80,77,74,100,96,72,29.94,29.83,29.71,10,8,2,16,6,25,1.39,7,Rain,136
2012-9-30,78,72,65,78,69,61,100,88,65,29.83,29.72,29.66,10,10,3,21,12,31,0.01,7,,303